User: anonymous   Login
Location: Milton
(43.5183°N, 79.8775°W)
Time: 01:39:07
(UTC+00:00)
Language:

NOAA 15 - Orbit

View from above orbital plane
View from above orbital plane
View from above satellite
View from above satellite

Ground track
Ground track

The orbit data is extracted from the following two-line orbital elements,

1 25338U 98030A   24111.58337280  .00000666  00000-0  29373-3 0  9991
2 25338  98.5741 139.9007 0011370 129.7431 230.4753 14.26541330348979
Epoch (UTC): 20 April 2024 14:00:03
Eccentricity: 0.0011370
inclination: 98.5741°
perigee height: 795 km
apogee height: 811 km
right ascension of ascending node: 139.9007°
argument of perigee: 129.7431°
revolutions per day: 14.26541330
mean anomaly at epoch: 230.4753°
orbit number at epoch: 34897

The dashed part of the orbit path shows where the satellite is in the earth's shadow,  

DLR